• In Hungary
  • List of Countries
  • For 7 days
  • Water Temperature
  • Satellite Maps
  • Weather Map
  • News
  • Weather Widgets
  • user-avatar
    Login

    Hourly Weather Providence

    Today, 21 February, Wednesday

    Time Temperature Precipitation Wind Pressure Humidity
    00:00 +12°C° 0 mm 4 mps 769 mmHg 93%
    01:00 +11°C° 0 mm 4 mps 769 mmHg 92%
    02:00 +11°C° 0 mm 4 mps 768 mmHg 93%
    03:00 +12°C° 0 mm 4 mps 768 mmHg 94%
    04:00 +12°C° 0 mm 5 mps 768 mmHg 94%
    05:00 +12°C° 0 mm 5 mps 768 mmHg 95%
    06:00 +13°C° 0 mm 5 mps 768 mmHg 95%
    07:00 +13°C° 0 mm 5 mps 767 mmHg 94%
    08:00 +13°C° 0 mm 5 mps 767 mmHg 93%
    09:00 +14°C° 0 mm 5 mps 767 mmHg 92%
    10:00 +15°C° 0 mm 5 mps 767 mmHg 91%
    11:00 +15°C° 0 mm 5 mps 767 mmHg 88%
    12:00 +16°C° 0 mm 5 mps 766 mmHg 86%
    13:00 +17°C° 0 mm 5 mps 766 mmHg 83%
    14:00 +17°C° 0 mm 5 mps 766 mmHg 82%
    15:00 +17°C° 0 mm 5 mps 765 mmHg 81%
    16:00 +19°C° 0 mm 5 mps 765 mmHg 80%
    17:00 +17°C° 0 mm 5 mps 766 mmHg 83%
    18:00 +17°C° 0 mm 4 mps 767 mmHg 86%
    19:00 +17°C° 0 mm 4 mps 767 mmHg 89%
    20:00 +15°C° 0 mm 4 mps 768 mmHg 85%
    21:00 +14°C° 0 mm 4 mps 769 mmHg 81%
    22:00 +13°C° 0 mm 3 mps 770 mmHg 78%
    23:00 +12°C° 0 mm 4 mps 771 mmHg 74%

    Tomorrow, 22 February, Thursday

    Time Temperature Precipitation Wind Pressure Humidity
    00:00 +11°C° 0 mm 4 mps 772 mmHg 71%
    01:00 +10°C° 0 mm 4 mps 772 mmHg 68%
    02:00 +8°C° 0 mm 4 mps 773 mmHg 62%
    03:00 +7°C° 0 mm 4 mps 774 mmHg 56%
    04:00 +6°C° 0 mm 4 mps 774 mmHg 51%
    05:00 +5°C° 0 mm 3 mps 775 mmHg 51%
    06:00 +5°C° 0 mm 3 mps 775 mmHg 50%
    07:00 +4°C° 0 mm 3 mps 776 mmHg 50%
    08:00 +5°C° 0 mm 3 mps 776 mmHg 52%
    09:00 +5°C° 0 mm 3 mps 776 mmHg 54%
    10:00 +5°C° 0 mm 3 mps 777 mmHg 56%
    11:00 +5°C° 0.1 mm 3 mps 777 mmHg 58%
    12:00 +5°C° 0.1 mm 2 mps 777 mmHg 60%
    13:00 +5°C° 0.1 mm 2 mps 777 mmHg 63%
    14:00 +4°C° 0.9 mm 2 mps 777 mmHg 70%
    15:00 +2°C° 0.9 mm 3 mps 777 mmHg 76%
    16:00 +1°C° 0.9 mm 3 mps 776 mmHg 83%
    17:00 +1°C° 0.8 mm 3 mps 777 mmHg 85%
    18:00 +2°C° 0.8 mm 2 mps 777 mmHg 87%
    19:00 +2°C° 0.8 mm 2 mps 777 mmHg 89%
    20:00 +1°C° 0 mm 2 mps 777 mmHg 90%
    21:00 +1°C° 0 mm 2 mps 777 mmHg 90%
    22:00 +1°C° 0 mm 2 mps 777 mmHg 90%
    23:00 +1°C° 0 mm 2 mps 777 mmHg 90%

    Day after tomorrow, 23 February, Friday

    Time Temperature Precipitation Wind Pressure Humidity
    00:00 +1°C° 0 mm 2 mps 777 mmHg 90%
    01:00 +1°C° 0 mm 2 mps 777 mmHg 90%
    02:00 +1°C° 0 mm 2 mps 777 mmHg 88%
    03:00 +1°C° 0 mm 2 mps 777 mmHg 86%
    04:00 +1°C° 0 mm 2 mps 777 mmHg 85%
    05:00 +1°C° 0 mm 2 mps 777 mmHg 85%
    06:00 +1°C° 0 mm 2 mps 777 mmHg 85%
    07:00 +1°C° 0 mm 2 mps 776 mmHg 85%
    08:00 +2°C° 0 mm 2 mps 776 mmHg 79%
    09:00 +2°C° 0 mm 3 mps 776 mmHg 73%
    10:00 +4°C° 0 mm 3 mps 776 mmHg 67%
    11:00 +4°C° 0 mm 3 mps 775 mmHg 67%
    12:00 +4°C° 0 mm 3 mps 774 mmHg 67%
    13:00 +4°C° 0 mm 4 mps 773 mmHg 67%
    14:00 +4°C° 0.2 mm 3 mps 772 mmHg 72%
    15:00 +3°C° 0.2 mm 3 mps 771 mmHg 77%
    16:00 +2°C° 0.2 mm 3 mps 770 mmHg 82%
    17:00 +3°C° 1 mm 3 mps 769 mmHg 86%
    18:00 +3°C° 1 mm 3 mps 768 mmHg 90%
    19:00 +4°C° 1 mm 2 mps 768 mmHg 94%
    20:00 +4°C° 0.1 mm 3 mps 767 mmHg 95%
    21:00 +5°C° 0.1 mm 3 mps 766 mmHg 96%
    22:00 +7°C° 0.1 mm 3 mps 765 mmHg 96%
    23:00 +6°C° 0 mm 4 mps 764 mmHg 96%

    24 February, Saturday

    Time Temperature Precipitation Wind Pressure Humidity
    00:00 +7°C° 0 mm 4 mps 763 mmHg 96%
    01:00 +7°C° 0 mm 4 mps 762 mmHg 95%
    02:00 +7°C° 0 mm 4 mps 762 mmHg 95%
    03:00 +7°C° 0 mm 4 mps 762 mmHg 95%
    04:00 +8°C° 0 mm 3 mps 761 mmHg 95%
    05:00 +8°C° 0 mm 3 mps 762 mmHg 95%
    06:00 +8°C° 0 mm 3 mps 762 mmHg 94%
    07:00 +8°C° 0 mm 3 mps 763 mmHg 94%
    08:00 +9°C° 0 mm 3 mps 763 mmHg 87%
    09:00 +10°C° 0 mm 3 mps 763 mmHg 80%
    10:00 +11°C° 0 mm 3 mps 763 mmHg 72%
    11:00 +12°C° 0 mm 3 mps 763 mmHg 68%
    12:00 +14°C° 0 mm 2 mps 763 mmHg 64%
    13:00 +15°C° 0 mm 2 mps 763 mmHg 60%
    14:00 +15°C° 0 mm 2 mps 764 mmHg 60%
    15:00 +15°C° 0 mm 1 mps 764 mmHg 61%
    16:00 +15°C° 0 mm 1 mps 764 mmHg 61%
    17:00 +13°C° 0 mm 1 mps 765 mmHg 68%
    18:00 +10°C° 0 mm 2 mps 765 mmHg 74%
    19:00 +8°C° 0 mm 2 mps 765 mmHg 80%
    20:00 +8°C° 0 mm 2 mps 766 mmHg 80%
    21:00 +7°C° 0 mm 2 mps 766 mmHg 79%
    22:00 +7°C° 0 mm 2 mps 766 mmHg 79%
    23:00 +7°C° 0.2 mm 3 mps 766 mmHg 79%

    25 February, Sunday

    Time Temperature Precipitation Wind Pressure Humidity
    00:00 +5°C° 0.2 mm 3 mps 766 mmHg 80%
    01:00 +5°C° 0.2 mm 4 mps 766 mmHg 81%
    02:00 +5°C° 0.6 mm 4 mps 766 mmHg 82%
    03:00 +5°C° 0.6 mm 5 mps 765 mmHg 83%
    04:00 +3°C° 0.6 mm 5 mps 765 mmHg 84%
    05:00 +3°C° 0.7 mm 5 mps 765 mmHg 85%
    06:00 +3°C° 0.7 mm 5 mps 765 mmHg 86%
    07:00 +3°C° 0.7 mm 5 mps 765 mmHg 86%
    08:00 +3°C° 0.8 mm 6 mps 764 mmHg 87%
    09:00 +3°C° 0.8 mm 6 mps 763 mmHg 88%
    10:00 +3°C° 0.8 mm 7 mps 762 mmHg 88%
    11:00 +3°C° 2.7 mm 6 mps 761 mmHg 90%
    12:00 +5°C° 2.7 mm 5 mps 760 mmHg 92%
    13:00 +5°C° 2.7 mm 5 mps 758 mmHg 94%
    14:00 +6°C° 0.3 mm 4 mps 757 mmHg 95%
    15:00 +7°C° 0.3 mm 3 mps 757 mmHg 96%
    16:00 +8°C° 0.3 mm 2 mps 756 mmHg 97%
    17:00 +8°C° 0.1 mm 2 mps 756 mmHg 97%
    18:00 +8°C° 0.1 mm 2 mps 756 mmHg 97%
    19:00 +8°C° 0.1 mm 2 mps 756 mmHg 97%
    20:00 +8°C° 0 mm 2 mps 756 mmHg 97%
    21:00 +8°C° 0 mm 2 mps 756 mmHg 97%
    22:00 +8°C° 0 mm 3 mps 756 mmHg 97%
    23:00 +8°C° 0 mm 3 mps 757 mmHg 93%

    26 February, Monday

    Time Temperature Precipitation Wind Pressure Humidity
    00:00 +8°C° 0 mm 3 mps 757 mmHg 90%
    01:00 +7°C° 0 mm 3 mps 758 mmHg 86%
    02:00 +5°C° 0 mm 3 mps 758 mmHg 86%
    03:00 +6°C° 0 mm 2 mps 758 mmHg 86%
    04:00 +5°C° 0 mm 2 mps 759 mmHg 86%
    05:00 +5°C° 0 mm 2 mps 759 mmHg 85%
    06:00 +4°C° 0 mm 2 mps 760 mmHg 85%
    07:00 +4°C° 0 mm 2 mps 760 mmHg 85%
    08:00 +4°C° 0 mm 3 mps 761 mmHg 76%
    09:00 +5°C° 0 mm 3 mps 761 mmHg 68%
    10:00 +7°C° 0 mm 4 mps 761 mmHg 60%
    11:00 +7°C° 0 mm 5 mps 761 mmHg 55%
    12:00 +8°C° 0 mm 5 mps 761 mmHg 50%
    13:00 +9°C° 0 mm 5 mps 761 mmHg 45%
    14:00 +9°C° 0 mm 5 mps 761 mmHg 44%
    15:00 +9°C° 0 mm 5 mps 761 mmHg 43%
    16:00 +9°C° 0 mm 5 mps 761 mmHg 42%
    17:00 +7°C° 0 mm 4 mps 762 mmHg 46%
    18:00 +6°C° 0 mm 4 mps 763 mmHg 51%
    19:00 +4°C° 0 mm 4 mps 763 mmHg 56%
    20:00 +3°C° 0 mm 4 mps 764 mmHg 57%
    21:00 +3°C° 0 mm 4 mps 764 mmHg 58%
    22:00 +1°C° 0 mm 4 mps 765 mmHg 60%
    23:00 0°C° 0 mm 4 mps 765 mmHg 61%
    Show more